FW1245 Weather Reports


time (UTC)temp
C
wind
direction
speed
KPH
gust
KPH
rain 1hr
cm
rain 24hr
cm
rain mn
cm
humidity
%
barometer
mb
20260504151017 13 315 3.2 14.5 0.00 0.00 0.00 59 1008.8
20260504150517 13 293 3.2 16.1 0.00 0.00 0.00 57 1008.9
20260504141016 13 293 4.8 14.5 0.00 0.00 0.00 56 1008.7
20260504140516 13 315 4.8 45.1 0.00 0.00 0.00 57 1009.0
20260504130516 12 315 4.8 14.5 0.00 0.00 0.00 55 1009.0
20260504110536 9 338 3.2 16.1 0.00 0.00 0.00 65 1009.3
20260504100516 7 315 1.6 6.4 0.00 0.00 0.00 75 1009.2
20260504081516 7 0 1.6 8.0 0.00 0.00 0.00 82 1009.5
20260504081016 7 45 3.2 12.9 0.00 0.00 0.00 83 1009.3
20260504080616 7 90 1.6 12.9 0.00 0.00 0.00 83 1009.5
20260504050515 6 270 3.2 9.7 0.00 0.00 0.00 79 1009.9
20260504045515 6 270 4.8 14.5 0.00 0.00 0.00 78 1010.0
20260504045017 6 315 3.2 8.0 0.00 0.00 0.00 76 1010.1
20260504044537 6 270 3.2 12.9 0.00 0.00 0.00 74 1010.1
20260504044038 6 270 3.2 19.3 0.00 0.00 0.00 71 1010.2
20260504043558 6 135 1.6 14.5 0.00 0.00 0.00 69 1010.2
20260504043018 6 293 1.6 11.3 0.00 0.00 0.00 67 1010.1
20260504042537 6 270 1.6 11.3 0.00 0.00 0.00 66 1010.2
20260504042017 6 225 1.6 11.3 0.00 0.00 0.00 65 1010.2
20260504041517 7 293 1.6 8.0 0.00 0.00 0.00 65 1010.2
20260504041118 6 293 3.2 12.9 0.00 0.00 0.00 65 1010.2
20260504040517 6 248 1.6 14.5 0.00 0.00 0.00 63 1010.1
20260504040017 6 135 1.6 6.4 0.00 0.00 0.00 63 1010.1
20260504035515 6 135 1.6 8.0 0.00 0.00 0.00 65 1010.1
20260504035015 6 203 3.2 24.1 0.00 0.00 0.00 63 1010.0
20260504034516 6 90 1.6 12.9 0.00 0.00 0.00 63 1010.0
20260504034016 6 180 3.2 6.4 0.00 0.00 0.00 61 1010.1
20260504033616 6 180 3.2 17.7 0.00 0.00 0.00 62 1010.1
20260504033015 6 293 3.2 11.3 0.00 0.00 0.00 60 1010.1
20260504032515 6 225 1.6 4.8 0.00 0.00 0.00 63 1010.0
20260504032015 6 293 1.6 6.4 0.00 0.00 0.00 62 1009.7
20260504031515 5 293 3.2 11.3 0.00 0.00 0.00 63 1009.8
20260504031015 5 113 1.6 6.4 0.00 0.00 0.00 63 1009.7
20260504030515 5 135 1.6 11.3 0.00 0.00 0.00 69 1009.7
20260504030015 5 0.0 3.2 0.00 0.00 0.00 65 1009.8
20260504025515 5 68 1.6 4.8 0.00 0.00 0.00 66 1009.7
20260504025036 5 68 1.6 4.8 0.00 0.00 0.00 65 1009.6
20260504024515 5 135 1.6 3.2 0.00 0.00 0.00 63 1009.7
20260504024016 5 158 1.6 4.8 0.00 0.00 0.00 65 1009.8
20260504023516 5 225 1.6 4.8 0.00 0.00 0.00 62 1009.7
20260504023017 5 113 1.6 6.4 0.00 0.00 0.00 67 1009.7
20260504022517 5 270 1.6 8.0 0.00 0.00 0.00 61 1009.8
20260504022017 4 113 1.6 6.4 0.00 0.00 0.00 65 1009.7
20260504021517 4 203 1.6 4.8 0.00 0.00 0.00 66 1009.8
20260504021017 4 248 3.2 14.5 0.00 0.00 0.00 65 1009.6
20260504020517 3 225 1.6 8.0 0.00 0.00 0.00 69 1009.8
20260504020017 3 135 1.6 4.8 0.00 0.00 0.00 73 1009.7
20260504015517 3 135 1.6 6.4 0.00 0.00 0.00 73 1009.8
20260504015017 2 225 1.6 6.4 0.00 0.00 0.00 74 1009.6
20260504014517 2 225 1.6 4.8 0.00 0.00 0.00 74 1009.6
20260504014037 2 225 1.6 4.8 0.00 0.00 0.00 77 1009.5
20260504013517 2 180 1.6 12.9 0.00 0.00 0.00 76 1009.6
20260504013017 2 180 1.6 3.2 0.00 0.00 0.00 81 1009.5
20260504012517 2 180 1.6 4.8 0.00 0.00 0.00 81 1009.6
20260504012017 2 203 3.2 8.0 0.00 0.00 0.00 83 1009.5
20260504011517 1 90 1.6 9.7 0.00 0.00 0.00 84 1009.3
20260504011017 1 135 1.6 4.8 0.00 0.00 0.00 85 1009.2
20260504010517 1 135 1.6 4.8 0.00 0.00 0.00 85 1009.1
20260504010017 1 135 3.2 11.3 0.00 0.00 0.00 85 1009.1
20260504005517 1 158 3.2 6.4 0.00 0.00 0.00 85 1008.9
20260504005017 1 158 1.6 4.8 0.00 0.00 0.00 86 1008.8
20260504004515 2 158 1.6 6.4 0.00 0.00 0.00 86 1008.8
20260504004037 2 158 1.6 3.2 0.00 0.00 0.00 85 1008.7
20260504003517 2 158 1.6 4.8 0.00 0.00 0.00 85 1008.7
20260504003017 2 0.0 3.2 0.00 0.00 0.00 84 1008.6
20260504002517 2 0.0 1.6 0.00 0.00 0.00 84 1008.6
20260504002017 2 0.0 3.2 0.00 0.00 0.00 84 1008.5
20260504001537 2 0.0 0.0 0.00 0.00 0.00 83 1008.5
20260504001017 3 0.0 0.0 0.00 0.00 0.00 83 1008.5
20260504000517 3 0.0 1.6 0.00 0.00 0.00 82 1008.3
20260504000058 3 158 1.6 4.8 0.00 0.00 0.00 80 1008.3
20260503235517 3 0.0 0.0 0.00 0.00 0.00 79 1008.4
20260503235037 4 0.0 0.0 0.00 0.00 0.00 79 1008.3
20260503234537 5 158 1.6 4.8 0.00 0.00 0.00 76 1008.3
20260503234017 5 158 1.6 4.8 0.00 0.00 0.00 74 1008.3
20260503233517 5 158 1.6 4.8 0.00 0.00 0.00 72 1008.2
20260503233037 6 248 1.6 6.4 0.00 0.00 0.00 68 1008.1
20260503232517 6 248 1.6 4.8 0.00 0.00 0.00 64 1008.1
20260503232017 6 0.0 3.2 0.00 0.00 0.00 63 1008.1
20260503231537 7 0.0 3.2 0.00 0.00 0.00 60 1008.3
20260503231017 7 0.0 1.6 0.00 0.00 0.00 61 1008.3
20260503230517 7 0.0 1.6 0.00 0.00 0.00 52 1008.1
20260503230038 7 270 1.6 6.4 0.00 0.00 0.00 55 1008.0
20260503225517 8 0.0 3.2 0.00 0.00 0.00 52 1008.1
20260503225017 8 0.0 3.2 0.00 0.00 0.00 52 1008.0
20260503224517 8 225 3.2 9.7 0.00 0.00 0.00 48 1008.1
20260503224017 8 270 1.6 9.7 0.00 0.00 0.00 49 1008.2
20260503223517 8 315 1.6 6.4 0.00 0.00 0.00 51 1008.2
20260503223017 8 248 3.2 12.9 0.00 0.00 0.00 47 1008.1
20260503222558 9 293 1.6 11.3 0.00 0.00 0.00 49 1008.0
20260503222037 8 270 3.2 9.7 0.00 0.00 0.00 48 1008.1
20260503221517 8 315 1.6 6.4 0.00 0.00 0.00 52 1008.2
20260503221017 8 293 3.2 12.9 0.00 0.00 0.00 48 1008.1
20260503220517 9 270 3.2 12.9 0.00 0.00 0.00 51 1008.3
20260503220017 9 338 1.6 6.4 0.00 0.00 0.00 49 1008.1
20260503215517 8 293 1.6 8.0 0.00 0.00 0.00 49 1008.3
20260503215017 8 293 1.6 4.8 0.00 0.00 0.00 54 1008.1
20260503214517 8 293 1.6 6.4 0.00 0.00 0.00 51 1008.2
20260503214017 8 293 3.2 11.3 0.00 0.00 0.00 51 1008.1
20260503213517 8 270 3.2 12.9 0.00 0.00 0.00 52 1008.1
20260503213017 8 293 3.2 14.5 0.00 0.00 0.00 51 1008.2
20260503212517 8 270 4.8 19.3 0.00 0.00 0.00 48 1008.1
20260503212017 8 270 3.2 6.4 0.00 0.00 0.00 51 1008.2
20260503211517 8 270 3.2 8.0 0.00 0.00 0.00 52 1008.2
20260503211017 8 293 3.2 11.3 0.00 0.00 0.00 53 1008.1
20260503210517 8 158 3.2 11.3 0.00 0.00 0.00 51 1008.2
20260503210037 8 338 1.6 6.4 0.00 0.00 0.00 53 1008.3
20260503205516 8 293 1.6 8.0 0.00 0.00 0.00 52 1008.1
20260503205017 8 293 1.6 8.0 0.00 0.00 0.00 55 1008.1
20260503204517 8 270 1.6 9.7 0.00 0.00 0.00 54 1008.1
20260503204017 8 180 3.2 19.3 0.00 0.00 0.00 57 1008.2
20260503203517 8 248 3.2 8.0 0.00 0.00 0.00 54 1008.0
20260503203037 8 293 1.6 4.8 0.00 0.00 0.00 55 1008.2
20260503202517 8 293 3.2 11.3 0.00 0.00 0.00 54 1008.2
20260503202017 8 293 3.2 9.7 0.00 0.00 0.00 54 1008.2
20260503201517 8 293 3.2 9.7 0.00 0.00 0.00 56 1008.3
20260503201037 8 315 1.6 14.5 0.00 0.00 0.00 57 1008.3
20260503200517 8 293 3.2 12.9 0.00 0.00 0.00 54 1008.3
20260503200017 8 270 3.2 12.9 0.00 0.00 0.00 56 1008.3
20260503195537 8 270 3.2 14.5 0.00 0.00 0.00 57 1008.4
20260503195037 7 270 3.2 12.9 0.00 0.00 0.00 53 1008.5
20260503194517 8 293 3.2 12.9 0.00 0.00 0.00 53 1008.7
20260503194017 8 0 3.2 11.3 0.00 0.00 0.00 54 1008.4
20260503193517 8 293 3.2 17.7 0.00 0.00 0.00 54 1008.7
20260503193017 8 270 6.4 17.7 0.00 0.00 0.00 51 1008.6
20260503192517 8 293 3.2 9.7 0.00 0.00 0.00 56 1008.6
20260503192017 8 135 1.6 11.3 0.00 0.00 0.00 57 1008.7
20260503191517 7 293 3.2 11.3 0.00 0.00 0.00 55 1008.8
20260503191017 8 315 3.2 11.3 0.00 0.00 0.00 53 1008.9
20260503190517 8 293 3.2 8.0 0.00 0.00 0.00 54 1008.9
20260503190017 8 0 4.8 16.1 0.00 0.00 0.00 57 1008.9
20260503185517 8 135 3.2 12.9 0.00 0.00 0.00 59 1008.8
20260503185017 7 338 1.6 14.5 0.00 0.00 0.00 57 1008.9
20260503184517 7 293 3.2 11.3 0.00 0.00 0.00 57 1008.7
20260503184016 7 293 3.2 11.3 0.00 0.00 0.00 58 1008.8
20260503183517 7 270 1.6 11.3 0.00 0.00 0.00 58 1008.9
20260503183057 7 293 3.2 11.3 0.00 0.00 0.00 57 1008.8
20260503182538 7 315 4.8 16.1 0.00 0.00 0.00 56 1008.9
20260503182017 7 293 4.8 22.5 0.00 0.00 0.00 57 1008.9
20260503181517 7 293 3.2 11.3 0.00 0.00 0.00 56 1008.9
20260503181017 7 293 3.2 16.1 0.00 0.00 0.00 58 1009.0
20260503180516 7 338 1.6 6.4 0.00 0.00 0.00 60 1009.0
20260503180057 7 293 3.2 9.7 0.00 0.00 0.00 60 1008.9
20260503175516 7 293 1.6 6.4 0.00 0.00 0.00 61 1008.9
20260503175016 6 270 1.6 4.8 0.00 0.00 0.00 58 1008.9
20260503174516 7 293 4.8 20.9 0.00 0.00 0.00 55 1008.9
20260503174016 7 270 1.6 4.8 0.00 0.00 0.00 59 1008.9
20260503173517 7 225 3.2 14.5 0.00 0.00 0.00 57 1008.8
20260503173016 7 315 3.2 11.3 0.00 0.00 0.00 59 1009.0
20260503172516 6 270 3.2 14.5 0.00 0.00 0.00 61 1009.0
20260503172017 6 293 4.8 12.9 0.00 0.00 0.00 57 1009.0
20260503171557 6 315 1.6 4.8 0.00 0.00 0.00 61 1009.0
20260503171016 6 0 3.2 14.5 0.00 0.00 0.00 61 1009.0
20260503170516 6 315 3.2 6.4 0.00 0.00 0.00 64 1009.0